Regional Weather Roundup
Issued by NWS

Home | Current Version | Previous Version | Text Only | Print | Product List | Glossary Off
Versions: 1 2 3 4 5 6 7 8 9 10 11 12 13 14 15 16 17 18 19 20 21 22 23 24 25 26 27 28 29 30 31 32 33 34 35 36 37 38 39 40 41 42 43 44 45 46 47 48 49 50

000
ASUS43 KBIS 012301
RWRND

NORTH DAKOTA REGIONAL WEATHER ROUNDUP
NATIONAL WEATHER SERVICE BISMARCK ND
500 PM CST SUN FEB 01 2015

NOTE: "FAIR" INDICATES FEW OR NO CLOUDS BELOW 12,000 FEET WITH NO
SIGNIFICANT WEATHER AND/OR OBSTRUCTIONS TO VISIBILITY.


NDZ001>003-009>011-017-020000-
NORTHWEST NORTH DAKOTA

CITY           SKY/WX    TMP DP  RH WIND       PRES   REMARKS
WILLISTON      CLEAR      7  -5  57 SW7       30.24F WCI  -5
MINOT          CLEAR      4 -10  52 SW8       30.29F WCI  -9
MINOT AFB      CLEAR      5  -5  61 S7        30.29F WCI  -7
$$

NDZ018>021-031>035-040>046-020000-
SOUTHWEST NORTH DAKOTA

CITY           SKY/WX    TMP DP  RH WIND       PRES   REMARKS
BISMARCK       CLEAR      4 -13  45 W7        30.36F WCI  -8
DICKINSON      CLEAR      5  -3  69 SW8       30.20F WCI  -8
GARRISON         N/A      3 -10  54 SW6       30.29F WCI  -8
HETTINGER ARPT CLEAR      6   1  80 SW5       30.24F WCI  -3
$$

NDZ004>008-012>016-024-026-027-054-020000-
NORTHEAST NORTH DAKOTA

CITY           SKY/WX    TMP DP  RH WIND       PRES   REMARKS
GRAND FORKS    CLEAR      2 -12  52 CALM      30.43F
GRND FRKS AFB  CLEAR      2 -15  44 NW3       30.43F
DEVILS LAKE    CLEAR      1 -15  46 W9        30.34F WCI -14
$$

NDZ022-023-025-028>030-036>039-047>053-020000-
SOUTHEAST NORTH DAKOTA

CITY           SKY/WX    TMP DP  RH WIND       PRES   REMARKS
FARGO          CLEAR      4 -13  45 N9        30.42F WCI -10
JAMESTOWN      CLEAR      2 -10  57 W10       30.37R WCI -14
$$



USA.gov is the U.S. government's official web portal to all federal, state and local government web resources and services.